Tracking 25964 objects as of 12-Aug-2022
HD Live streaming from Space Station
objects crossing your sky now

CZ-4C R/B

Track CZ-4C R/B now!
10-day predictions
CZ-4C R/B is classified as:


NORAD ID: 39211
Int'l Code: 2013-037D
Perigee: 467.1 km
Apogee: 632.7 km
Inclination: 98.1 °
Period: 95.5 minutes
Semi major axis: 6920 km
RCS: Unknown
Launch date: July 19, 2013
Source: People's Republic of China (PRC)
Launch site: Taiyaun Space Center, China (TSC)

Note: This is a ROCKET BODY
aabbcc
Your satellite tracking list
Your tracking list is empty




NASA's NSSDC Master Catalog

Two Line Element Set (TLE):
1 39211U 13037D   22223.76184059  .00003154  00000-0  17883-3 0  9994
2 39211  98.0684  36.6252 0119608  78.0630 283.3976 15.07862623497419
Source of the keplerian elements: AFSPC